Kodiak, AK

10:15 AM AKDT on October 21, 2017 (GMT -0800)
Kodiak

Weather History for PADQ - November, 2012

Change the Weather History Date:

Friday, November 30, 2012

  Actual Average Record
Temperature  
Mean Temperature 32 °F 32 °F  
Max Temperature 34 °F 37 °F 48 °F (1950)
Min Temperature 29 °F 27 °F 6 °F (1971)
Degree Days  
Heating Degree Days 33 33  
Month to date heating degree days 911 934  
Since 1 July heating degree days 2925 2795  
Cooling Degree Days 0 0  
Month to date cooling degree days 0 0  
Year to date cooling degree days 0 1  
Moisture  
Dew Point 11 °F    
Average Humidity 0    
Maximum Humidity 0    
Minimum Humidity 0    
Precipitation  
Precipitation 0.00 in 0.26 in 1.51 in (1923)
Month to date precipitation 4.54 6.87  
Year to date precipitation 52.30 69.27  
Snow  
Snow 0.00 in 0.40 in 2.40 in (1999)
Month to date snowfall 7.4 6.4  
Since 1 July snowfall 7.8 7.5  
Since 1 September snowfall 7.8 7.5  
Snow Depth 0.00 in    
Sea Level Pressure  
Sea Level Pressure 29.55 in    
Wind  
Wind Speed 14 mph (NW)    
Max Wind Speed 24 mph    
Max Gust Speed 36 mph    
Visibility 10 miles    
Events      
T = Trace of Precipitation, MM = Missing Value Source: NWS Daily Summary

Daily Weather History Graph

Daily Weather History Graph

Search for Another Location

Airport or City:

Trip Planner

Search our weather history database for the weather conditions in past years. The results will help you decide how hot, cold, wet, or windy it might be!

Date:

Astronomy

Nov. 30, 2012 Rise Set
Actual Time 9:27 AM AKST 4:29 PM AKST
Civil Twilight 8:38 AM AKST 5:18 PM AKST
Nautical Twilight 7:48 AM AKST 6:09 PM AKST
Astronomical Twilight 7:01 AM AKST 6:56 PM AKST
Moon 6:38 PM AKST (11/30) 11:04 AM AKST (11/30)
Length of Visible Light 8h 39m
Length of Day
7h 02m
Waning Gibbous, 95% of the Moon is Illuminated
Nov 30
Waning Gibbous
Dec 6
Last Quarter
Dec 12
New
Dec 19
First Quarter
Dec 28
Full

Hourly Weather History & Observations

Time (AKST) Temp. Windchill Dew Point Humidity Pressure Visibility Wind Dir Wind Speed Gust Speed Precip Events Conditions
12:53 AM 30.0 °F 18.7 °F 14.0 °F 51% 29.47 in 10.0 mi WNW 16.1 mph - N/A   Mostly Cloudy
1:53 AM 30.9 °F 19.8 °F 14.0 °F 50% 29.48 in 10.0 mi NW 16.1 mph - N/A   Overcast
3:53 AM 30.0 °F 18.3 °F 12.9 °F 49% 29.51 in 10.0 mi WNW 17.3 mph - N/A   Scattered Clouds
4:53 AM 28.9 °F 19.8 °F 12.0 °F 49% 29.53 in 10.0 mi NW 10.4 mph 19.6 mph N/A   Partly Cloudy
5:53 AM 30.0 °F 18.7 °F 14.0 °F 51% 29.54 in 10.0 mi NW 16.1 mph 24.2 mph N/A   Partly Cloudy
6:53 AM 30.0 °F 19.5 °F 12.0 °F 47% 29.55 in 10.0 mi NW 13.8 mph 27.6 mph N/A   Partly Cloudy
7:53 AM 30.0 °F 19.5 °F 12.9 °F 49% 29.56 in 10.0 mi NW 13.8 mph - N/A   Partly Cloudy
8:53 AM 30.0 °F 18.3 °F 12.0 °F 47% 29.57 in 10.0 mi NW 17.3 mph 25.3 mph N/A   Partly Cloudy
9:53 AM 30.0 °F 19.5 °F 15.1 °F 54% 29.58 in 10.0 mi NW 13.8 mph 19.6 mph N/A   Partly Cloudy
10:53 AM 30.9 °F 21.7 °F 17.1 °F 57% 29.58 in 10.0 mi NW 11.5 mph 20.7 mph N/A   Partly Cloudy
11:53 AM 32.0 °F 22.1 °F 16.0 °F 52% 29.58 in 10.0 mi NW 13.8 mph 20.7 mph N/A   Clear
12:53 PM 32.0 °F 20.8 °F 15.1 °F 50% 29.58 in 10.0 mi WNW 17.3 mph 25.3 mph N/A   Clear
1:53 PM 33.1 °F 23.0 °F 14.0 °F 46% 29.57 in 10.0 mi WNW 15.0 mph 23.0 mph N/A   Clear
2:53 PM 33.1 °F 22.6 °F 10.9 °F 40% 29.56 in 10.0 mi NW 16.1 mph 25.3 mph N/A   Clear
3:53 PM 34.0 °F 24.2 °F 7.0 °F 32% 29.56 in 10.0 mi WNW 15.0 mph 24.2 mph N/A   Clear
4:53 PM 33.1 °F 23.9 °F 3.9 °F 29% 29.57 in 10.0 mi WNW 12.7 mph 18.4 mph N/A   Clear
5:53 PM 33.1 °F 23.9 °F 6.1 °F 32% 29.56 in 10.0 mi NW 12.7 mph 20.7 mph N/A   Clear
6:53 PM 33.1 °F 26.1 °F 5.0 °F 31% 29.56 in 10.0 mi WNW 8.1 mph 24.2 mph N/A   Clear
7:53 PM 34.0 °F 27.2 °F 3.0 °F 27% 29.55 in 10.0 mi WNW 8.1 mph - N/A   Clear
8:53 PM 34.0 °F 23.8 °F 6.1 °F 31% 29.55 in 10.0 mi WNW 16.1 mph 26.5 mph N/A   Clear
9:53 PM 34.0 °F 25.5 °F 9.0 °F 35% 29.55 in 10.0 mi NW 11.5 mph 23.0 mph N/A   Clear
10:53 PM 33.1 °F 25.5 °F 12.0 °F 42% 29.56 in 10.0 mi WNW 9.2 mph 21.9 mph N/A   Clear
11:53 PM 34.0 °F 24.2 °F 3.9 °F 28% 29.56 in 10.0 mi North 15.0 mph 20.7 mph N/A   Clear